Flag Weather past 2 weeks in Buenos Aires, Argentina

Now
81 °F

Passing clouds.


Feels Like: 81 °F
Forecast: N/A
Wind: 12 mph from North

Location: Buenos Aires Airport

Current Time: Nov 23, 2014 at 6:16:49 PM

Latest Report: Nov 23, 2014 at 5:00 PM


Visibility: N/A

Pressure: 29.74 "Hg

Humidity: 51%

Dew point: 61 °F

Location of Buenos AiresLocation

Historic Weather in Buenos Aires — Graph

°F

Buenos Aires temperature yesterday

Maximum temperature yesterday: 75 °F (at 3:00 PM)
Minimum temperature yesterday: 57 °F (at 5:00 AM)
Average temperature yesterday: 66 °F

Past Weeks' High & Low Weather Summary

 TemperatureHumidityPressure
High88 °F (Nov 18, 4:00 PM)94% (Nov 11, 6:00 AM)30.15 "Hg (Nov 11, 6:00 AM)
Low55 °F (Nov 13, 5:00 AM)25% (Nov 8, 5:00 PM)29.65 "Hg (Nov 18, 6:00 PM)
Average72 °F62%29.92 "Hg
* Reported Nov 8 5:00 PM — Nov 23 5:00 PM, Buenos Aires, Weather by CustomWeather, © 2014

Note: Actual official high and low records may vary slightly from our data, if they occured in-between our weather recording intervals... More about our weather records

Advertising

Buenos Aires weather history for previous 24 hours

 ConditionsComfort  
Time TempWeatherWind HumidityBarometerVisibility
5:00 PM
Nov 23
81 °FPassing clouds.12 mph51%29.74 "HgN/A
4:00 PM81 °FSunny.9 mph51%29.77 "Hg10 mi
3:00 PM81 °FSunny.10 mph51%29.80 "Hg10 mi
2:00 PM79 °FSunny.12 mph54%29.83 "Hg10 mi
1:00 PM79 °FSunny.13 mph51%29.86 "Hg10 mi
12:00 PM77 °FSunny.12 mph51%29.86 "Hg10 mi
11:00 AM75 °FSunny.9 mph54%29.89 "Hg10 mi
10:00 AM73 °FSunny.10 mph57%29.89 "Hg10 mi
9:00 AM70 °FSunny.15 mph60%29.92 "Hg10 mi
8:00 AM66 °FSunny.16 mph68%29.92 "Hg10 mi
7:00 AM64 °FPassing clouds.13 mph68%29.89 "HgN/A
6:00 AM63 °FSunny.13 mph68%29.89 "Hg10 mi
5:00 AM64 °FSunny.12 mph64%29.89 "Hg10 mi
4:00 AM64 °FClear.9 mph64%29.86 "Hg10 mi
3:00 AM64 °FClear.10 mph64%29.86 "Hg10 mi
2:00 AM64 °FClear.9 mph68%29.89 "Hg10 mi
1:00 AM64 °FClear.9 mph64%29.89 "Hg10 mi
12:00 AM66 °FClear.10 mph64%29.92 "Hg10 mi
11:00 PM
Nov 22
66 °FClear.10 mph64%29.92 "Hg10 mi
10:00 PM68 °FClear.7 mph56%29.89 "Hg10 mi
9:00 PM72 °FClear.6 mph47%29.89 "Hg10 mi
8:00 PM72 °FClear.8 mph47%29.86 "Hg10 mi
7:00 PM72 °FPassing clouds.6 mph53%29.86 "HgN/A
6:00 PM72 °FPassing clouds.8 mph53%29.86 "HgN/A
Weather by CustomWeather, © 2014

See weather overviewHow to use our weather pages